COSMOS 2596 (708K)

Last updated on Thu Dec 11 2025 00:03:19 GMT+0000 (Coordinated Universal Time)

1 65590U 25206B 25344.54615882 -.00000052 00000+0 00000+0 0 9993 2 65590 64.7453 321.5499 0014013 305.8933 208.9804 2.13100337 1898
UTC large
Height (km)
Speed (km/s)
/
Latitude / Longitude
Inclination (degrees)
Orbital Period (minutes)
Azimuth
Elevation
Range (km)
Doppler Factor

Next 0 passes for location: London (51.5072 / 0.1276)

Sorry there are no passes over London.